Regional Weather Roundup
Issued by NWS

Home | Current Version | Previous Version | Graphics & Text | Print | Product List | Glossary On
Versions: 1 2 3 4 5 6 7 8 9 10 11 12 13 14 15 16 17 18 19 20 21 22 23 24 25 26 27 28 29 30 31 32 33 34 35 36 37 38 39 40 41 42 43 44 45 46 47 48 49 50
000
ASUS45 KCYS 210510
RWRWY

WYOMING REGIONAL WEATHER ROUNDUP
NATIONAL WEATHER SERVICE CHEYENNE WY
1000 PM MST SAT DEC 20 2014

NOTE:  "FAIR" INDICATES FEW OR NO CLOUDS BELOW 12,000 FEET
WITH NO SIGNIFICANT WEATHER AND/OR OBSTRUCTIONS TO VISIBILITY.

WYZ001-210600-
YELLOWSTONE NATIONAL PARK

CITY           SKY/WX    TMP DP  RH WIND       PRES   REMARKS
LK YELLOWSTONE   N/A     27  23  85 VRB3      29.86F
W YELLOWSTONE  NOT AVBL

$$
WYZ002>013-054>058-071-098>099-210600-
NORTHERN WYOMING

CITY           SKY/WX    TMP DP  RH WIND       PRES   REMARKS
JACKSON        CLOUDY    32  30  93 S15       29.89F WCI  22
CODY           FAIR      32  19  59 S6        29.74F WCI  26
GREYBULL       FAIR      13  10  88 SW5       29.79F WCI   5
WORLAND        FAIR       9   6  88 SW5       29.79F WCI   1
SHERIDAN       FAIR      21  17  84 CALM      29.73F
BUFFALO          N/A     28  16  60 W3        29.75F
GILLETTE       FAIR      34  23  64 SW15      29.75F WCI  24
HULETT           N/A    N/A N/A N/A MISG        N/A
NEWCASTLE      FAIR      32  27  80 SE8       29.82S WCI  25

$$
WYZ014>020-022>026-101>103-210600-
CENTRAL WYOMING

CITY           SKY/WX    TMP DP  RH WIND       PRES   REMARKS
BIG PINEY      FAIR      22  19  89 CALM      29.95S
PINEDALE       CLOUDY    23  23 100 CALM      29.95F
DUBOIS         NOT AVBL
LANDER         FAIR      17  14  88 SW3       29.83F
RIVERTON       FAIR      15  12  88 NW3       29.83F
CASPER         FAIR      31  24  75 SW17      29.83F WCI  19
DOUGLAS        FAIR      32  25  75 NW5       29.85F WCI  27

$$
WYZ021-027>030-104>119-210600-
SOUTHERN WYOMING

CITY           SKY/WX    TMP DP  RH WIND       PRES   REMARKS
EVANSTON       CLOUDY    30  28  92 SW16      30.01S WCI  19
KEMMERER       CLOUDY    30  28  93 SW5       29.98R WCI  25
FORT BRIDGER   CLOUDY    33  31  92 W18G26    30.03R WCI  22
ROCK SPRINGS   MOCLDY    29  26  89 W18       29.96F WCI  16
DIXON          CLOUDY    31  28  88 SW10      30.05R WCI  23
RAWLINS        CLOUDY    29  25  85 W17G29    29.94R WCI  17
SARATOGA       MOCLDY    30  25  80 W10       29.97S WCI  21
LARAMIE        CLOUDY    25  19  78 SW5       29.90F WCI  19
CHEYENNE       MOCLDY    33  16  49 W8        29.91S WCI  26
TORRINGTON     FAIR     N/A N/A N/A W14       29.87F
PINE BLUFFS    CLOUDY    32  21  64 W5        29.91F WCI  27

$$


USA.gov is the U.S. government's official web portal to all federal, state and local government web resources and services.